Pink Ribbon: National Breast Cancer Awareness Month map of SDU home
SDU - Airport
Location
City:  Rio de Janeiro, Rio de Janeiro, Brazil
Name:Aeroporto Santos Dumont
ICAO:SBRJ
IATA:SDU

Details
Type:Airport (Aerodrome, Airfield)
Use:Public/Civil, Military
Latitude:2254'38"S (-22.910460)
Longitude:4309'47"W (-43.163132)
Datum:WGS 1984
Elevation:11 ft (3 m)
Variation:22.66W (WMM2015 magnetic declination)
-0.10 annual change
Runways:2
Longest:4341 × 138 ft (1323 × 42 m), paved

Time
Time Zone:UTC-3 (DST-2)
Local Time:

Weather
METAR:SBRJ 011845Z 09009KT 5000 HZ BKN010 BKN040 OVC080 21/17 Q1020

Related Locations
Nearby:
Farthest:IWO: 12132 mi / 19525 km
Iwo Jima [Iwo Jima AB], Iwo Jima Island, 13, JP

Find:

   beyond  
but within

Other Information
Maps:
NOTAMs:
Links:
Sources:

  
flag of Brazil
flag of Rio de Janeiro
flag of Rio de Janeiro
  

Sectional Chart

Flight Planning
at skyvector.com

Satellite Image

Google Maps Satellite view

 

Copyright © 2004-2016 Karl L. Swartz. All rights reserved.
The Great Circle Mapper name and logo are trademarks of the Great Circle Mapper.
All other trademarks mentioned herein belong to their respective owners.
Please see credits for attibutions and further copyright information.

  Follow gcmap on Facebook Follow gcmap on Twitter Follow gcmap on Google+ GCmap on LinkedIn

hCard Microformat

Geo Microformat